J Percy Priest Observed Data For Previous 48 Hours

Caption
Day and Hour Reservoir Elevation (behind dam)* Tailwater Elevation (below dam)* Average Hourly Discharge*
11/11/2018 1 AM CST 488.36 393.15 0
11/11/2018 2 AM CST 488.37 393.10 0
11/11/2018 3 AM CST 488.38 393.05 0
11/11/2018 4 AM CST 488.39 393.00 0
11/11/2018 5 AM CST 488.40 392.95 0
11/11/2018 6 AM CST 488.41 392.90 0
11/11/2018 7 AM CST 488.40 396.08 4,600
11/11/2018 8 AM CST 488.39 396.58 4,600
11/11/2018 9 AM CST 488.37 396.53 4,600
11/11/2018 10 AM CST 488.35 396.65 4,600
11/11/2018 11 AM CST 488.30 396.82 4,600
11/11/2018 12 PM CST 488.29 396.80 4,600
11/11/2018 1 PM CST 488.29 396.80 0
11/11/2018 2 PM CST 488.29 396.80 0
11/11/2018 3 PM CST 488.29 396.80 0
11/11/2018 4 PM CST 488.29 396.80 0
11/11/2018 5 PM CST 488.29 396.80 0
11/11/2018 6 PM CST 488.29 396.80 4,600
11/11/2018 7 PM CST 488.29 396.65 4,600
11/11/2018 8 PM CST 488.28 396.82 4,600
11/11/2018 9 PM CST 488.23 396.81 4,600
11/11/2018 10 PM CST 488.27 393.56 0
11/11/2018 11 PM CST 488.24 393.38 0
11/12/2018 12 AM CST 488.27 393.29 0
11/12/2018 1 AM CST 488.27 393.14 0
11/12/2018 2 AM CST 488.27 393.09 0
11/12/2018 3 AM CST 488.29 392.94 0
11/12/2018 4 AM CST 488.30 392.89 0
11/12/2018 5 AM CST 488.31 392.88 0
11/12/2018 6 AM CST 488.31 392.81 0
11/12/2018 7 AM CST 488.28 394.65 4,600
11/12/2018 8 AM CST 488.25 396.48 4,600
11/12/2018 9 AM CST 488.24 396.49 4,600
11/12/2018 10 AM CST 488.23 396.69 4,600
11/12/2018 11 AM CST 488.23 396.69 4,600
11/12/2018 12 PM CST 488.23 396.69 4,600
11/12/2018 1 PM CST 488.18 396.97 4,600
11/12/2018 2 PM CST 488.16 396.82 4,600
11/12/2018 3 PM CST 488.12 396.84 4,600
11/12/2018 4 PM CST 488.10 396.93 4,600
11/12/2018 5 PM CST 488.10 396.86 4,600
11/12/2018 6 PM CST 488.10 396.90 4,600
11/12/2018 7 PM CST 488.08 396.97 4,600
11/12/2018 8 PM CST 488.07 397.05 4,600
11/12/2018 9 PM CST 488.04 397.16 4,600
11/12/2018 10 PM CST 488.03 393.62 0
11/12/2018 11 PM CST 488.03 393.62 0
11/13/2018 12 AM CST 488.03 393.62 0
11/13/2018 1 AM CST 488.07 393.24 0
11/13/2018 2 AM CST 488.09 393.16 0
11/13/2018 3 AM CST 488.09 393.07 0
11/13/2018 4 AM CST 488.11 393.01 0
11/13/2018 5 AM CST 488.14 392.95 0
11/13/2018 6 AM CST 488.16 395.24 4,600

Elevations are in feet above sea level. Discharges are in cubic feet per second and are reported at the end of the hour.